Location: Saint-Maurice-d�Ard�che
(44.5216°N, 4.4002°E)
Time: 03:34:07
(UTC+00:00)

Meteor 1-16 Rocket - Pass Details

Date: 30 March 2020
Orbit: 790 x 907 km, 81.2° (Epoch: 02 June)

Event Time Altitude Azimuth Distance (km) Brightness Sun altitude
Exits shadow 20:40:16 26° 207° (SSW) 1,517 5.4 -25.9°
Maximum altitude 20:43:15 66° 283° (WNW) 881 4.4 -26.4°
Drops below altitude 10° 20:48:41 10° 5° (N) 2,429 7.0 -27.1°
Sets 20:51:09 0° 9° (N) 3,383 7.7 -27.5°
